Dubuque, IA

5:03 PM CST on November 11, 2019 (GMT -0600)
Dubuque Regional

Weather History for KDBQ - September, 2019

Change the Weather History Date:

Tuesday, September 3, 2019

  Actual Average Record
Temperature  
Mean Temperature 72 °F 67 °F  
Max Temperature 82 °F 77 °F 95 °F (1939)
Min Temperature 61 °F 57 °F 41 °F (1974)
Degree Days  
Heating Degree Days 0 2  
Month to date heating degree days 0 6  
Since 1 July heating degree days 9 33  
Cooling Degree Days 6 4  
Month to date cooling degree days 14 12  
Year to date cooling degree days 587 588  
Growing Degree Days 22 (Base 50)    
Moisture  
Dew Point 67 °F    
Average Humidity 87    
Maximum Humidity 100    
Minimum Humidity 58    
Precipitation  
Precipitation 0.35 in 0.12 in 3.09 in (1934)
Month to date precipitation 0.35 0.37  
Year to date precipitation 31.48 26.35  
Snow  
Snow 0.00 in 0.00 in - ()
Month to date snowfall 0.0 0.0  
Since 1 July snowfall 0.0 0.0  
Since 1 September snowfall 0.0 0.0  
Snow Depth 0.00 in    
Sea Level Pressure  
Sea Level Pressure 29.86 in    
Wind  
Wind Speed 12 mph ()    
Max Wind Speed 23 mph    
Max Gust Speed 30 mph    
Visibility 8.7 miles    
Events Rain , Thunderstorm    
T = Trace of Precipitation, MM = Missing Value Source: Averaged Metar Reports

Daily Weather History Graph

Daily Weather History Graph

Search for Another Location

Airport or City:

Astronomy

Sep. 03, 2019 Rise Set
Actual Time 6:29 AM CDT 7:33 PM CDT
Civil Twilight 6:01 AM CDT 8:02 PM CDT
Nautical Twilight 5:26 AM CDT 8:36 PM CDT
Astronomical Twilight 4:50 AM CDT 9:12 PM CDT
Moon 11:28 AM CDT (9/3) 10:24 PM CDT (9/3)
Length of Visible Light 14h 01m
Length of Day
13h 03m
Waxing Crescent, 25% of the Moon is Illuminated
Sep 3
Waxing Crescent
Sep 5
First Quarter
Sep 13
Full
Sep 21
Last Quarter
Sep 28
New

Hourly Weather History & Observations

Time (CDT) Temp. Heat Index Dew Point Humidity Pressure Visibility Wind Dir Wind Speed Gust Speed Precip Events Conditions
12:53 AM 69.1 °F - 66.9 °F 93% 29.94 in 10.0 mi South 12.7 mph - N/A   Scattered Clouds
1:53 AM 69.1 °F - 66.0 °F 90% 29.93 in 10.0 mi SSW 10.4 mph - N/A   Overcast
2:53 AM 68.0 °F - 66.0 °F 93% 29.88 in 10.0 mi South 11.5 mph - N/A   Overcast
3:20 AM 69.1 °F - 66.0 °F 90% 29.89 in 10.0 mi South 13.8 mph - N/A Thunderstorm Thunderstorm
3:29 AM 69.1 °F - 66.0 °F 90% 29.90 in 10.0 mi SW 11.5 mph - N/A Thunderstorm Mostly Cloudy
3:37 AM 69.1 °F - 66.9 °F 93% 29.89 in 5.0 mi SSW 18.4 mph 24.2 mph 0.00 in Rain , Thunderstorm Light Thunderstorms and Rain
3:42 AM 68.0 °F - 66.9 °F 96% 29.88 in 1.8 mi SSW 20.7 mph 27.6 mph 0.06 in Rain , Thunderstorm Heavy Thunderstorms and Rain
3:53 AM 68.0 °F - 66.9 °F 96% 29.86 in 4.0 mi South 17.3 mph - 0.18 in Rain , Thunderstorm Thunderstorms and Rain
4:17 AM 68.0 °F - 66.9 °F 96% 29.87 in 7.0 mi South 10.4 mph - 0.11 in Rain , Thunderstorm Light Rain
4:35 AM 68.0 °F - 66.9 °F 96% 29.84 in 6.0 mi South 12.7 mph - 0.12 in Rain , Thunderstorm Light Thunderstorms and Rain
4:53 AM 68.0 °F - 66.9 °F 96% 29.81 in 6.0 mi South 16.1 mph 28.8 mph 0.17 in Rain , Thunderstorm Light Thunderstorms and Rain
5:33 AM 69.1 °F - 68.0 °F 96% 29.84 in 9.0 mi SSW 12.7 mph 23.0 mph 0.00 in Rain , Thunderstorm Light Thunderstorms and Rain
5:51 AM 69.8 °F - 68.0 °F 94% 29.85 in 10.0 mi South 9.2 mph - 0.00 in Thunderstorm Overcast
5:53 AM 69.1 °F - 68.0 °F 96% 29.83 in 10.0 mi South 10.4 mph - 0.00 in Thunderstorm Overcast
6:01 AM 69.1 °F - 68.0 °F 96% 29.85 in 10.0 mi South 12.7 mph - N/A   Overcast
6:13 AM 69.1 °F - 68.0 °F 96% 29.85 in 10.0 mi South 11.5 mph 19.6 mph N/A   Overcast
6:53 AM 69.1 °F - 68.0 °F 96% 29.85 in 10.0 mi South 9.2 mph - N/A   Overcast
7:53 AM 69.1 °F - 68.0 °F 96% 29.83 in 7.0 mi South 13.8 mph - N/A   Overcast
8:07 AM 69.1 °F - 68.0 °F 96% 29.84 in 7.0 mi South 12.7 mph 21.9 mph N/A   Overcast
8:25 AM 69.1 °F - 68.0 °F 96% 29.85 in 7.0 mi SSW 10.4 mph - N/A   Overcast
8:53 AM 70.0 °F - 69.1 °F 97% 29.83 in 6.0 mi South 12.7 mph - N/A   Overcast
9:00 AM 70.0 °F - 69.1 °F 97% 29.85 in 6.0 mi SSW 9.2 mph - N/A   Overcast
9:20 AM 70.0 °F - 69.1 °F 97% 29.85 in 7.0 mi SSW 9.2 mph - N/A   Overcast
9:53 AM 72.0 °F - 71.1 °F 97% 29.81 in 5.0 mi South 12.7 mph - N/A   Overcast
10:03 AM 73.0 °F - 71.1 °F 93% 29.82 in 9.0 mi SSW 15.0 mph - N/A   Mostly Cloudy
10:19 AM 73.0 °F - 71.1 °F 93% 29.83 in 10.0 mi SW 16.1 mph - N/A   Mostly Cloudy
10:53 AM 75.0 °F - 72.0 °F 90% 29.81 in 10.0 mi SSW 11.5 mph - N/A   Overcast
11:20 AM 75.9 °F - 72.0 °F 87% 29.80 in 10.0 mi South 12.7 mph - N/A   Overcast
11:36 AM 77.0 °F - 73.0 °F 88% 29.82 in 10.0 mi SSW 12.7 mph - N/A   Overcast
11:53 AM 78.1 °F - 73.0 °F 84% 29.81 in 10.0 mi SW 11.5 mph - N/A   Overcast
12:50 PM 78.8 °F - 73.4 °F 83% 29.87 in 10.0 mi West 11.5 mph 21.9 mph N/A   Scattered Clouds
12:53 PM 79.0 °F - 73.9 °F 84% 29.86 in 10.0 mi West 13.8 mph 21.9 mph N/A   Scattered Clouds
1:53 PM 77.0 °F - 73.9 °F 90% 29.79 in 10.0 mi SSW 11.5 mph - 0.00 in   Scattered Clouds
2:53 PM 80.1 °F 84.2 °F 73.0 °F 79% 29.80 in 10.0 mi WSW 13.8 mph 26.5 mph 0.00 in   Clear
3:53 PM 80.1 °F 82.7 °F 68.0 °F 67% 29.80 in 10.0 mi WNW 18.4 mph 29.9 mph N/A   Partly Cloudy
4:53 PM 79.0 °F - 63.0 °F 58% 29.81 in 10.0 mi NW 15.0 mph 25.3 mph N/A   Clear
5:53 PM 77.0 °F - 62.1 °F 60% 29.84 in 10.0 mi WNW 15.0 mph 26.5 mph N/A   Clear
6:53 PM 73.9 °F - 59.0 °F 59% 29.87 in 10.0 mi WNW 15.0 mph - N/A   Clear
7:53 PM 69.1 °F - 57.9 °F 68% 29.90 in 10.0 mi WNW 8.1 mph - N/A   Clear
8:53 PM 66.9 °F - 55.9 °F 68% 29.93 in 10.0 mi NW 9.2 mph - N/A   Clear
9:53 PM 66.0 °F - 55.9 °F 70% 29.94 in 10.0 mi NW 13.8 mph 19.6 mph N/A   Clear
10:53 PM 64.9 °F - 54.0 °F 68% 29.97 in 10.0 mi NW 13.8 mph - N/A   Clear
11:53 PM 63.0 °F - 55.0 °F 75% 29.98 in 10.0 mi NW 8.1 mph - N/A   Clear